| time (UTC) | temp F | wind direction | speed knots | gust knots | rain 1hr in | rain 24hr in | rain mn in | humidity % | barometer mb |
| 20260903231054 | 102 | 160 | 7.8 | 12.2 | 0.00 | 0.00 | 0.00 | 14 | 1005.9 |
| 20260903230557 | 102 | 181 | 6.1 | 12.2 | 0.00 | 0.00 | 0.00 | 14 | 1005.9 |
| 20260903230101 | 102 | 205 | 4.3 | 7.8 | 0.00 | 0.00 | 0.00 | 14 | 1005.8 |
| 20260903225553 | 102 | 145 | 3.5 | 9.6 | 0.00 | 0.00 | 0.00 | 13 | 1005.8 |
| 20260903225055 | 102 | 140 | 3.5 | 9.6 | 0.00 | 0.00 | 0.00 | 13 | 1005.7 |
| 20260903224552 | 102 | 179 | 2.6 | 10.4 | 0.00 | 0.00 | 0.00 | 13 | 1005.7 |
| 20260903224052 | 103 | 185 | 2.6 | 7.0 | 0.00 | 0.00 | 0.00 | 12 | 1005.7 |
| 20260903223105 | 103 | 122 | 1.7 | 9.6 | 0.00 | 0.00 | 0.00 | 11 | 1005.7 |
| 20260903222552 | 103 | 72 | 3.5 | 11.3 | 0.00 | 0.00 | 0.00 | 12 | 1005.8 |
| 20260903222052 | 103 | 158 | 4.3 | 11.3 | 0.00 | 0.00 | 0.00 | 12 | 1005.8 |
| 20260903221551 | 103 | 154 | 2.6 | 7.8 | 0.00 | 0.00 | 0.00 | 12 | 1005.8 |
| 20260903221053 | 103 | 228 | 3.5 | 7.0 | 0.00 | 0.00 | 0.00 | 14 | 1005.8 |
| 20260903220550 | 103 | 51 | 1.7 | 6.1 | 0.00 | 0.00 | 0.00 | 15 | 1005.8 |
| 20260903215550 | 102 | 193 | 4.3 | 10.4 | 0.00 | 0.00 | 0.00 | 15 | 1006.1 |
| 20260903215049 | 102 | 192 | 5.2 | 10.4 | 0.00 | 0.00 | 0.00 | 15 | 1006.1 |
| 20260903214552 | 103 | 196 | 5.2 | 8.7 | 0.00 | 0.00 | 0.00 | 15 | 1006.1 |
| 20260903214051 | 103 | 171 | 2.6 | 4.3 | 0.00 | 0.00 | 0.00 | 15 | 1006.2 |
| 20260903213047 | 102 | 244 | 1.7 | 8.7 | 0.00 | 0.00 | 0.00 | 16 | 1006.2 |
| 20260903212646 | 101 | 199 | 4.3 | 8.7 | 0.00 | 0.00 | 0.00 | 16 | 1006.4 |
| 20260903212046 | 102 | 160 | 2.6 | 7.8 | 0.00 | 0.00 | 0.00 | 16 | 1006.5 |
| 20260903211546 | 102 | 134 | 3.5 | 7.8 | 0.00 | 0.00 | 0.00 | 16 | 1006.5 |
| 20260903211048 | 102 | 236 | 5.2 | 7.8 | 0.00 | 0.00 | 0.00 | 16 | 1006.6 |
| 20260903210548 | 102 | 138 | 1.7 | 7.0 | 0.00 | 0.00 | 0.00 | 17 | 1006.6 |
| 20260903210044 | 101 | 214 | 1.7 | 7.0 | 0.00 | 0.00 | 0.00 | 17 | 1006.8 |
| 20260903205543 | 102 | 208 | 3.5 | 7.0 | 0.00 | 0.00 | 0.00 | 16 | 1006.8 |
| 20260903205042 | 102 | 161 | 2.6 | 7.0 | 0.00 | 0.00 | 0.00 | 16 | 1006.9 |
| 20260903204542 | 102 | 343 | 0.0 | 4.3 | 0.00 | 0.00 | 0.00 | 17 | 1007.0 |
| 20260903204041 | 101 | 277 | 1.7 | 5.2 | 0.00 | 0.00 | 0.00 | 17 | 1006.9 |
| 20260903203040 | 101 | 113 | 4.3 | 9.6 | 0.00 | 0.00 | 0.00 | 18 | 1007.1 |
| 20260903202540 | 101 | 210 | 5.2 | 9.6 | 0.00 | 0.00 | 0.00 | 18 | 1007.2 |
| 20260903202044 | 101 | 91 | 4.3 | 8.7 | 0.00 | 0.00 | 0.00 | 18 | 1007.2 |
| 20260903201538 | 101 | 107 | 4.3 | 8.7 | 0.00 | 0.00 | 0.00 | 19 | 1007.1 |
| 20260903201042 | 100 | 188 | 4.3 | 14.8 | 0.00 | 0.00 | 0.00 | 18 | 1007.2 |
| 20260903200536 | 100 | 191 | 6.1 | 14.8 | 0.00 | 0.00 | 0.00 | 19 | 1007.2 |
| 20260903200044 | 100 | 200 | 5.2 | 8.7 | 0.00 | 0.00 | 0.00 | 19 | 1007.4 |
| 20260903195535 | 100 | 198 | 3.5 | 7.8 | 0.00 | 0.00 | 0.00 | 20 | 1007.4 |
| 20260903195038 | 99 | 201 | 3.5 | 7.8 | 0.00 | 0.00 | 0.00 | 20 | 1007.5 |
| 20260903194544 | 100 | 153 | 3.5 | 7.8 | 0.00 | 0.00 | 0.00 | 21 | 1007.7 |
| 20260903194034 | 101 | 230 | 1.7 | 9.6 | 0.00 | 0.00 | 0.00 | 20 | 1007.7 |
| 20260903193034 | 100 | 122 | 2.6 | 8.7 | 0.00 | 0.00 | 0.00 | 20 | 1008.0 |
| 20260903192534 | 100 | 248 | 3.5 | 7.0 | 0.00 | 0.00 | 0.00 | 21 | 1008.0 |
| 20260903192033 | 100 | 78 | 0.9 | 5.2 | 0.00 | 0.00 | 0.00 | 21 | 1008.1 |
| 20260903191535 | 100 | 185 | 1.7 | 7.0 | 0.00 | 0.00 | 0.00 | 21 | 1008.1 |
| 20260903191032 | 100 | 127 | 2.6 | 7.0 | 0.00 | 0.00 | 0.00 | 21 | 1008.3 |
| 20260903190532 | 99 | 99 | 2.6 | 7.8 | 0.00 | 0.00 | 0.00 | 22 | 1008.4 |
| 20260903190029 | 99 | 206 | 1.7 | 7.8 | 0.00 | 0.00 | 0.00 | 22 | 1008.5 |
| 20260903185527 | 98 | 254 | 0.9 | 9.6 | 0.00 | 0.00 | 0.00 | 24 | 1008.5 |
| 20260903185026 | 98 | 218 | 1.7 | 7.8 | 0.00 | 0.00 | 0.00 | 24 | 1008.6 |
| 20260903184524 | 98 | 226 | 4.3 | 9.6 | 0.00 | 0.00 | 0.00 | 23 | 1008.8 |
| 20260903184023 | 97 | 227 | 5.2 | 9.6 | 0.00 | 0.00 | 0.00 | 23 | 1008.8 |
| 20260903183622 | 98 | 212 | 6.1 | 13.9 | 0.00 | 0.00 | 0.00 | 25 | 1009.0 |
| 20260903183035 | 98 | 187 | 3.5 | 13.9 | 0.00 | 0.00 | 0.00 | 25 | 1009.1 |
| 20260903182524 | 97 | 310 | 1.7 | 12.2 | 0.00 | 0.00 | 0.00 | 26 | 1009.2 |
| 20260903182019 | 97 | 216 | 5.2 | 12.2 | 0.00 | 0.00 | 0.00 | 26 | 1009.3 |
| 20260903181525 | 97 | 200 | 3.5 | 10.4 | 0.00 | 0.00 | 0.00 | 27 | 1009.4 |
| 20260903181016 | 96 | 212 | 7.0 | 10.4 | 0.00 | 0.00 | 0.00 | 27 | 1009.7 |
| 20260903180515 | 96 | 198 | 4.3 | 8.7 | 0.00 | 0.00 | 0.00 | 28 | 1009.7 |
| 20260903180014 | 95 | 191 | 3.5 | 11.3 | 0.00 | 0.00 | 0.00 | 28 | 1009.8 |
| 20260903175513 | 96 | 207 | 6.1 | 11.3 | 0.00 | 0.00 | 0.00 | 28 | 1009.9 |
| 20260903175013 | 95 | 173 | 2.6 | 9.6 | 0.00 | 0.00 | 0.00 | 29 | 1010.0 |
| 20260903174516 | 95 | 189 | 5.2 | 9.6 | 0.00 | 0.00 | 0.00 | 29 | 1010.0 |
| 20260903174013 | 95 | 210 | 6.1 | 9.6 | 0.00 | 0.00 | 0.00 | 30 | 1010.0 |
| 20260903173006 | 94 | 203 | 3.5 | 8.7 | 0.00 | 0.00 | 0.00 | 31 | 1010.3 |
| 20260903172505 | 94 | 278 | 4.3 | 9.6 | 0.00 | 0.00 | 0.00 | 31 | 1010.4 |
| 20260903172004 | 94 | 193 | 7.0 | 9.6 | 0.00 | 0.00 | 0.00 | 32 | 1010.4 |
| 20260903171503 | 93 | 205 | 5.2 | 9.6 | 0.00 | 0.00 | 0.00 | 32 | 1010.3 |
| 20260903171100 | 93 | 199 | 4.3 | 9.6 | 0.00 | 0.00 | 0.00 | 32 | 1010.5 |
| 20260903170559 | 92 | 207 | 5.2 | 10.4 | 0.00 | 0.00 | 0.00 | 33 | 1010.7 |
| 20260903170058 | 92 | 192 | 3.5 | 10.4 | 0.00 | 0.00 | 0.00 | 33 | 1010.7 |
| 20260903165556 | 92 | 190 | 4.3 | 9.6 | 0.00 | 0.00 | 0.00 | 33 | 1010.6 |
| 20260903165054 | 92 | 172 | 4.3 | 10.4 | 0.00 | 0.00 | 0.00 | 35 | 1010.7 |
| 20260903164557 | 91 | 213 | 7.0 | 10.4 | 0.00 | 0.00 | 0.00 | 34 | 1010.7 |
| 20260903164052 | 91 | 147 | 5.2 | 7.8 | 0.00 | 0.00 | 0.00 | 36 | 1010.7 |
| 20260903163650 | 91 | 200 | 4.3 | 8.7 | 0.00 | 0.00 | 0.00 | 36 | 1010.7 |
| 20260903163051 | 91 | 198 | 4.3 | 8.7 | 0.00 | 0.00 | 0.00 | 36 | 1010.7 |
| 20260903162550 | 90 | 172 | 3.5 | 8.7 | 0.00 | 0.00 | 0.00 | 37 | 1010.7 |
| 20260903162050 | 90 | 201 | 4.3 | 9.6 | 0.00 | 0.00 | 0.00 | 37 | 1010.7 |
| 20260903161606 | 90 | 182 | 5.2 | 9.6 | 0.00 | 0.00 | 0.00 | 38 | 1010.7 |
| 20260903161050 | 89 | 220 | 5.2 | 9.6 | 0.00 | 0.00 | 0.00 | 38 | 1010.8 |
| 20260903160547 | 89 | 227 | 6.1 | 10.4 | 0.00 | 0.00 | 0.00 | 38 | 1010.8 |
| 20260903160047 | 89 | 186 | 4.3 | 10.4 | 0.00 | 0.00 | 0.00 | 38 | 1010.8 |
| 20260903155546 | 88 | 179 | 6.1 | 11.3 | 0.00 | 0.00 | 0.00 | 39 | 1010.7 |
| 20260903155046 | 88 | 225 | 7.8 | 11.3 | 0.00 | 0.00 | 0.00 | 39 | 1010.7 |
| 20260903154547 | 88 | 239 | 6.1 | 12.2 | 0.00 | 0.00 | 0.00 | 39 | 1010.8 |
| 20260903154046 | 88 | 213 | 4.3 | 12.2 | 0.00 | 0.00 | 0.00 | 40 | 1010.7 |
| 20260903153647 | 87 | 193 | 7.0 | 10.4 | 0.00 | 0.00 | 0.00 | 41 | 1010.7 |
| 20260903153045 | 87 | 216 | 6.1 | 10.4 | 0.00 | 0.00 | 0.00 | 41 | 1010.7 |
| 20260903152548 | 87 | 204 | 5.2 | 7.8 | 0.00 | 0.00 | 0.00 | 42 | 1010.8 |
| 20260903152045 | 86 | 187 | 4.3 | 9.6 | 0.00 | 0.00 | 0.00 | 43 | 1010.8 |
| 20260903151547 | 86 | 184 | 6.1 | 10.4 | 0.00 | 0.00 | 0.00 | 43 | 1010.8 |
| 20260903151045 | 86 | 204 | 5.2 | 8.7 | 0.00 | 0.00 | 0.00 | 43 | 1010.8 |
| 20260903150545 | 85 | 204 | 3.5 | 7.8 | 0.00 | 0.00 | 0.00 | 45 | 1010.9 |
| 20260903150044 | 85 | 134 | 4.3 | 9.6 | 0.00 | 0.00 | 0.00 | 45 | 1010.9 |
| 20260903145547 | 85 | 206 | 3.5 | 7.8 | 0.00 | 0.00 | 0.00 | 46 | 1011.0 |
| 20260903145044 | 85 | 166 | 3.5 | 7.8 | 0.00 | 0.00 | 0.00 | 46 | 1011.0 |
| 20260903144544 | 84 | 198 | 4.3 | 9.6 | 0.00 | 0.00 | 0.00 | 46 | 1011.0 |
| 20260903144045 | 84 | 127 | 5.2 | 9.6 | 0.00 | 0.00 | 0.00 | 46 | 1011.0 |
| 20260903143643 | 84 | 159 | 6.1 | 11.3 | 0.00 | 0.00 | 0.00 | 48 | 1011.0 |
| 20260903143045 | 83 | 195 | 7.8 | 11.3 | 0.00 | 0.00 | 0.00 | 48 | 1010.9 |
| 20260903142544 | 83 | 192 | 7.0 | 10.4 | 0.00 | 0.00 | 0.00 | 48 | 1011.0 |
| 20260903142043 | 83 | 194 | 5.2 | 9.6 | 0.00 | 0.00 | 0.00 | 48 | 1011.0 |
| 20260903141542 | 83 | 184 | 5.2 | 9.6 | 0.00 | 0.00 | 0.00 | 48 | 1011.1 |
| 20260903141046 | 83 | 185 | 5.2 | 9.6 | 0.00 | 0.00 | 0.00 | 48 | 1011.1 |
| 20260903140544 | 83 | 206 | 4.3 | 12.2 | 0.00 | 0.00 | 0.00 | 49 | 1011.1 |
| 20260903140042 | 82 | 208 | 7.8 | 12.2 | 0.00 | 0.00 | 0.00 | 49 | 1011.0 |
| 20260903135541 | 82 | 185 | 4.3 | 8.7 | 0.00 | 0.00 | 0.00 | 49 | 1011.0 |
| 20260903135041 | 82 | 169 | 4.3 | 8.7 | 0.00 | 0.00 | 0.00 | 49 | 1011.0 |
| 20260903134544 | 82 | 177 | 5.2 | 8.7 | 0.00 | 0.00 | 0.00 | 50 | 1011.0 |
| 20260903134040 | 81 | 189 | 5.2 | 8.7 | 0.00 | 0.00 | 0.00 | 50 | 1011.0 |
| 20260903133639 | 80 | 191 | 4.3 | 8.7 | 0.00 | 0.00 | 0.00 | 50 | 1011.0 |
| 20260903133048 | 80 | 159 | 4.3 | 8.7 | 0.00 | 0.00 | 0.00 | 50 | 1011.0 |
| 20260903132538 | 80 | 173 | 3.5 | 8.7 | 0.00 | 0.00 | 0.00 | 50 | 1010.9 |
| 20260903132037 | 80 | 175 | 3.5 | 7.8 | 0.00 | 0.00 | 0.00 | 50 | 1010.7 |
| 20260903131540 | 79 | 169 | 2.6 | 6.1 | 0.00 | 0.00 | 0.00 | 50 | 1010.7 |
| 20260903131035 | 79 | 181 | 3.5 | 6.1 | 0.00 | 0.00 | 0.00 | 50 | 1010.6 |
| 20260903130536 | 78 | 159 | 3.5 | 7.0 | 0.00 | 0.00 | 0.00 | 50 | 1010.5 |
| 20260903130035 | 78 | 177 | 3.5 | 6.1 | 0.00 | 0.00 | 0.00 | 50 | 1010.5 |
| 20260903125535 | 78 | 166 | 2.6 | 4.3 | 0.00 | 0.00 | 0.00 | 50 | 1010.5 |
| 20260903125035 | 77 | 141 | 1.7 | 4.3 | 0.00 | 0.00 | 0.00 | 49 | 1010.3 |
| 20260903124553 | 77 | 133 | 1.7 | 4.3 | 0.00 | 0.00 | 0.00 | 49 | 1010.4 |
| 20260903124033 | 77 | 127 | 1.7 | 4.3 | 0.00 | 0.00 | 0.00 | 48 | 1010.4 |
| 20260903123633 | 77 | 81 | 0.9 | 2.6 | 0.00 | 0.00 | 0.00 | 47 | 1010.3 |
| 20260903123036 | 77 | 81 | 0.9 | 2.6 | 0.00 | 0.00 | 0.00 | 47 | 1010.2 |
| 20260903122535 | 77 | 81 | 0.9 | 4.3 | 0.00 | 0.00 | 0.00 | 47 | 1010.0 |
| 20260903122035 | 78 | 81 | 1.7 | 4.3 | 0.00 | 0.00 | 0.00 | 46 | 1010.0 |
| 20260903121545 | 78 | 158 | 0.9 | 3.5 | 0.00 | 0.00 | 0.00 | 46 | 1010.0 |
| 20260903121035 | 78 | 160 | 0.9 | 3.5 | 0.00 | 0.00 | 0.00 | 45 | 1010.1 |
| 20260903120532 | 78 | 160 | 1.7 | 4.3 | 0.00 | 0.00 | 0.00 | 45 | 1010.0 |
| 20260903120032 | 78 | 160 | 0.9 | 2.6 | 0.00 | 0.00 | 0.00 | 45 | 1009.9 |
| 20260903115534 | 78 | 160 | 0.9 | 4.3 | 0.00 | 0.00 | 0.00 | 44 | 1010.0 |
| 20260903115032 | 78 | 160 | 1.7 | 4.3 | 0.00 | 0.00 | 0.00 | 44 | 1009.9 |
| 20260903114533 | 78 | 160 | 0.9 | 3.5 | 0.00 | 0.00 | 0.00 | 44 | 1009.9 |
| 20260903114030 | 78 | 160 | 0.9 | 3.5 | 0.00 | 0.00 | 0.00 | 44 | 1009.8 |
| 20260903113631 | 78 | 184 | 0.9 | 3.5 | 0.00 | 0.00 | 0.00 | 43 | 1009.8 |
| 20260903113031 | 78 | 184 | 0.9 | 3.5 | 0.00 | 0.00 | 0.00 | 43 | 1009.8 |
| 20260903112529 | 78 | 184 | 1.7 | 3.5 | 0.00 | 0.00 | 0.00 | 43 | 1009.7 |
| 20260903112027 | 78 | 184 | 1.7 | 3.5 | 0.00 | 0.00 | 0.00 | 42 | 1009.8 |
| 20260903111525 | 78 | 184 | 1.7 | 4.3 | 0.00 | 0.00 | 0.00 | 42 | 1009.9 |
| 20260903111024 | 79 | 184 | 1.7 | 4.3 | 0.00 | 0.00 | 0.00 | 42 | 1010.0 |
| 20260903110523 | 79 | 186 | 1.7 | 3.5 | 0.00 | 0.00 | 0.00 | 41 | 1009.8 |
| 20260903110021 | 79 | 186 | 0.9 | 2.6 | 0.00 | 0.00 | 0.00 | 41 | 1009.8 |
| 20260903105521 | 79 | 186 | 0.9 | 2.6 | 0.00 | 0.00 | 0.00 | 41 | 1009.7 |
| 20260903105018 | 79 | 186 | 0.0 | 2.6 | 0.00 | 0.00 | 0.00 | 40 | 1009.8 |
| 20260903104524 | 80 | 186 | 0.9 | 3.5 | 0.00 | 0.00 | 0.00 | 40 | 1010.0 |
| 20260903104017 | 80 | 186 | 0.9 | 3.5 | 0.00 | 0.00 | 0.00 | 40 | 1009.9 |
| 20260903103618 | 80 | 186 | 1.7 | 5.2 | 0.00 | 0.00 | 0.00 | 39 | 1009.9 |
| 20260903103017 | 80 | 186 | 2.6 | 5.2 | 0.00 | 0.00 | 0.00 | 39 | 1009.8 |
| 20260903102516 | 80 | 185 | 2.6 | 4.3 | 0.00 | 0.00 | 0.00 | 39 | 1009.8 |
| 20260903102019 | 81 | 167 | 1.7 | 4.3 | 0.00 | 0.00 | 0.00 | 39 | 1010.0 |
| 20260903101519 | 81 | 168 | 1.7 | 5.2 | 0.00 | 0.00 | 0.00 | 38 | 1009.9 |
| 20260903101014 | 81 | 168 | 1.7 | 5.2 | 0.00 | 0.00 | 0.00 | 38 | 1009.9 |
| 20260903100513 | 81 | 160 | 1.7 | 4.3 | 0.00 | 0.00 | 0.00 | 38 | 1009.9 |
| 20260903100021 | 82 | 160 | 2.6 | 4.3 | 0.00 | 0.00 | 0.00 | 38 | 1010.0 |
| 20260903095514 | 82 | 162 | 1.7 | 5.2 | 0.00 | 0.00 | 0.00 | 38 | 1009.9 |
| 20260903095015 | 82 | 160 | 2.6 | 5.2 | 0.00 | 0.00 | 0.00 | 37 | 1010.0 |
| 20260903094513 | 82 | 160 | 2.6 | 5.2 | 0.00 | 0.00 | 0.00 | 37 | 1010.0 |
| 20260903094011 | 82 | 160 | 1.7 | 4.3 | 0.00 | 0.00 | 0.00 | 37 | 1010.1 |
| 20260903093610 | 82 | 166 | 2.6 | 4.3 | 0.00 | 0.00 | 0.00 | 38 | 1010.2 |
| 20260903093012 | 82 | 165 | 1.7 | 4.3 | 0.00 | 0.00 | 0.00 | 37 | 1010.1 |
| 20260903092510 | 82 | 166 | 2.6 | 5.2 | 0.00 | 0.00 | 0.00 | 37 | 1010.0 |
| 20260903092009 | 82 | 166 | 2.6 | 5.2 | 0.00 | 0.00 | 0.00 | 37 | 1010.1 |
| 20260903091512 | 82 | 171 | 2.6 | 5.2 | 0.00 | 0.00 | 0.00 | 37 | 1009.9 |
| 20260903091009 | 82 | 173 | 2.6 | 6.1 | 0.00 | 0.00 | 0.00 | 36 | 1010.0 |
| 20260903090508 | 82 | 164 | 2.6 | 7.0 | 0.00 | 0.00 | 0.00 | 36 | 1010.0 |
| 20260903090008 | 82 | 171 | 2.6 | 4.3 | 0.00 | 0.00 | 0.00 | 36 | 1009.9 |
| 20260903085507 | 82 | 173 | 2.6 | 5.2 | 0.00 | 0.00 | 0.00 | 36 | 1010.0 |
| 20260903085009 | 83 | 173 | 1.7 | 5.2 | 0.00 | 0.00 | 0.00 | 35 | 1010.0 |
| 20260903084505 | 83 | 166 | 2.6 | 5.2 | 0.00 | 0.00 | 0.00 | 35 | 1010.0 |
| 20260903084005 | 83 | 166 | 2.6 | 5.2 | 0.00 | 0.00 | 0.00 | 35 | 1010.1 |
| 20260903083605 | 83 | 172 | 1.7 | 4.3 | 0.00 | 0.00 | 0.00 | 35 | 1010.1 |
| 20260903083006 | 83 | 172 | 1.7 | 4.3 | 0.00 | 0.00 | 0.00 | 35 | 1010.2 |
| 20260903082504 | 83 | 172 | 2.6 | 5.2 | 0.00 | 0.00 | 0.00 | 34 | 1010.2 |
| 20260903082004 | 83 | 173 | 1.7 | 4.3 | 0.00 | 0.00 | 0.00 | 34 | 1010.2 |
| 20260903081503 | 83 | 173 | 1.7 | 4.3 | 0.00 | 0.00 | 0.00 | 34 | 1010.2 |
| 20260903081001 | 83 | 174 | 1.7 | 4.3 | 0.00 | 0.00 | 0.00 | 33 | 1010.3 |
| 20260903080501 | 84 | 175 | 2.6 | 4.3 | 0.00 | 0.00 | 0.00 | 33 | 1010.2 |
| 20260903080001 | 84 | 175 | 1.7 | 4.3 | 0.00 | 0.00 | 0.00 | 33 | 1010.3 |
| 20260903075500 | 84 | 175 | 2.6 | 5.2 | 0.00 | 0.00 | 0.00 | 33 | 1010.3 |
| 20260903075000 | 84 | 186 | 2.6 | 7.0 | 0.00 | 0.00 | 0.00 | 32 | 1010.3 |
| 20260903074500 | 84 | 187 | 3.5 | 7.8 | 0.00 | 0.00 | 0.00 | 32 | 1010.4 |
| 20260903074100 | 84 | 193 | 4.3 | 7.8 | 0.00 | 0.00 | 0.00 | 32 | 1010.5 |
| 20260903074001 | 84 | 199 | 4.3 | 7.0 | 0.00 | 0.00 | 0.00 | 32 | 1010.5 |
| 20260903073700 | 84 | 188 | 1.7 | 5.2 | 0.00 | 0.00 | 0.00 | 32 | 1010.4 |
| 20260903072559 | 84 | 188 | 2.6 | 5.2 | 0.00 | 0.00 | 0.00 | 31 | 1010.4 |
| 20260903072100 | 84 | 191 | 1.7 | 7.0 | 0.00 | 0.00 | 0.00 | 31 | 1010.4 |
| 20260903071601 | 84 | 188 | 2.6 | 4.3 | 0.00 | 0.00 | 0.00 | 31 | 1010.4 |
| 20260903071101 | 84 | 188 | 2.6 | 4.3 | 0.00 | 0.00 | 0.00 | 31 | 1010.4 |
| 20260903070602 | 84 | 187 | 1.7 | 5.2 | 0.00 | 0.00 | 0.00 | 31 | 1010.4 |
| 20260903070106 | 84 | 187 | 2.6 | 5.2 | 0.00 | 0.00 | 0.00 | 31 | 1010.6 |
| 20260903065559 | 84 | 185 | 2.6 | 5.2 | 0.00 | 0.00 | 0.00 | 31 | 1010.4 |
| 20260903065058 | 84 | 185 | 1.7 | 5.2 | 0.00 | 0.00 | 0.00 | 30 | 1010.4 |
| 20260903064601 | 84 | 185 | 2.6 | 5.2 | 0.00 | 0.00 | 0.00 | 30 | 1010.4 |
| 20260903064058 | 84 | 184 | 2.6 | 5.2 | 0.00 | 0.00 | 0.00 | 30 | 1010.4 |
| 20260903063558 | 85 | 184 | 1.7 | 3.5 | 0.00 | 0.00 | 0.00 | 30 | 1010.5 |
| 20260903062557 | 85 | 185 | 1.7 | 4.3 | 0.00 | 0.00 | 0.00 | 30 | 1010.5 |
| 20260903062055 | 85 | 185 | 1.7 | 3.5 | 0.00 | 0.00 | 0.00 | 29 | 1010.6 |
| 20260903061557 | 85 | 186 | 1.7 | 4.3 | 0.00 | 0.00 | 0.00 | 29 | 1010.5 |
| 20260903061058 | 85 | 186 | 1.7 | 4.3 | 0.00 | 0.00 | 0.00 | 29 | 1010.5 |
| 20260903060554 | 85 | 186 | 1.7 | 4.3 | 0.00 | 0.00 | 0.00 | 29 | 1010.4 |
| 20260903060054 | 86 | 187 | 1.7 | 4.3 | 0.00 | 0.00 | 0.00 | 28 | 1010.5 |
| 20260903055552 | 86 | 187 | 2.6 | 5.2 | 0.00 | 0.00 | 0.00 | 28 | 1010.4 |
| 20260903055050 | 86 | 187 | 3.5 | 5.2 | 0.00 | 0.00 | 0.00 | 28 | 1010.4 |
| 20260903054550 | 87 | 188 | 2.6 | 5.2 | 0.00 | 0.00 | 0.00 | 27 | 1010.4 |
| 20260903054048 | 87 | 189 | 2.6 | 5.2 | 0.00 | 0.00 | 0.00 | 27 | 1010.3 |
| 20260903053552 | 88 | 193 | 2.6 | 5.2 | 0.00 | 0.00 | 0.00 | 26 | 1010.3 |
| 20260903052550 | 88 | 194 | 2.6 | 5.2 | 0.00 | 0.00 | 0.00 | 26 | 1010.3 |
| 20260903052050 | 88 | 194 | 3.5 | 7.0 | 0.00 | 0.00 | 0.00 | 26 | 1010.3 |
| 20260903051546 | 88 | 194 | 3.5 | 7.0 | 0.00 | 0.00 | 0.00 | 26 | 1010.3 |
| 20260903051048 | 88 | 195 | 2.6 | 5.2 | 0.00 | 0.00 | 0.00 | 26 | 1010.2 |
| 20260903050547 | 89 | 198 | 2.6 | 5.2 | 0.00 | 0.00 | 0.00 | 26 | 1010.2 |
| 20260903050043 | 89 | 200 | 2.6 | 5.2 | 0.00 | 0.00 | 0.00 | 26 | 1010.1 |
| 20260903045543 | 89 | 201 | 2.6 | 5.2 | 0.00 | 0.00 | 0.00 | 26 | 1010.2 |
| 20260903045047 | 89 | 201 | 2.6 | 5.2 | 0.00 | 0.00 | 0.00 | 26 | 1010.1 |
| 20260903044543 | 89 | 200 | 2.6 | 5.2 | 0.00 | 0.00 | 0.00 | 26 | 1010.1 |
| 20260903044047 | 89 | 200 | 3.5 | 5.2 | 0.00 | 0.00 | 0.00 | 26 | 1010.1 |
| 20260903043542 | 89 | 187 | 2.6 | 4.3 | 0.00 | 0.00 | 0.00 | 25 | 1010.2 |
| 20260903042543 | 89 | 187 | 2.6 | 7.0 | 0.00 | 0.00 | 0.00 | 25 | 1010.1 |
| 20260903042043 | 90 | 188 | 2.6 | 7.0 | 0.00 | 0.00 | 0.00 | 25 | 1010.1 |
| 20260903041543 | 90 | 206 | 4.3 | 7.0 | 0.00 | 0.00 | 0.00 | 25 | 1010.1 |
| 20260903041042 | 89 | 201 | 3.5 | 7.0 | 0.00 | 0.00 | 0.00 | 25 | 1010.1 |
| 20260903040545 | 89 | 204 | 4.3 | 5.2 | 0.00 | 0.00 | 0.00 | 26 | 1010.1 |
| 20260903040142 | 88 | 179 | 1.7 | 4.3 | 0.00 | 0.00 | 0.00 | 26 | 1010.2 |
| 20260903035541 | 88 | 179 | 1.7 | 3.5 | 0.00 | 0.00 | 0.00 | 26 | 1010.2 |
| 20260903035041 | 88 | 179 | 0.9 | 3.5 | 0.00 | 0.00 | 0.00 | 26 | 1010.2 |
| 20260903034542 | 89 | 179 | 1.7 | 3.5 | 0.00 | 0.00 | 0.00 | 26 | 1010.2 |
| 20260903034042 | 89 | 179 | 1.7 | 3.5 | 0.00 | 0.00 | 0.00 | 26 | 1010.2 |
| 20260903033540 | 89 | 178 | 0.9 | 3.5 | 0.00 | 0.00 | 0.00 | 25 | 1010.1 |
| 20260903032542 | 90 | 179 | 1.7 | 3.5 | 0.00 | 0.00 | 0.00 | 25 | 1010.1 |
| 20260903032041 | 90 | 178 | 1.7 | 3.5 | 0.00 | 0.00 | 0.00 | 24 | 1010.0 |
| 20260903031547 | 91 | 178 | 1.7 | 4.3 | 0.00 | 0.00 | 0.00 | 24 | 1010.0 |
| 20260903031040 | 91 | 177 | 2.6 | 4.3 | 0.00 | 0.00 | 0.00 | 23 | 1009.9 |
| 20260903030542 | 91 | 175 | 1.7 | 4.3 | 0.00 | 0.00 | 0.00 | 23 | 1009.8 |
| 20260903030041 | 91 | 175 | 1.7 | 4.3 | 0.00 | 0.00 | 0.00 | 23 | 1009.8 |
| 20260903025540 | 91 | 168 | 1.7 | 4.3 | 0.00 | 0.00 | 0.00 | 24 | 1009.7 |
| 20260903025040 | 91 | 168 | 1.7 | 3.5 | 0.00 | 0.00 | 0.00 | 24 | 1009.7 |
| 20260903024540 | 91 | 168 | 1.7 | 2.6 | 0.00 | 0.00 | 0.00 | 24 | 1009.5 |
| 20260903024040 | 91 | 168 | 0.9 | 2.6 | 0.00 | 0.00 | 0.00 | 24 | 1009.6 |
| 20260903023540 | 92 | 168 | 0.9 | 2.6 | 0.00 | 0.00 | 0.00 | 23 | 1009.4 |
| 20260903022540 | 92 | 168 | 0.9 | 3.5 | 0.00 | 0.00 | 0.00 | 22 | 1009.2 |
| 20260903022043 | 93 | 168 | 1.7 | 3.5 | 0.00 | 0.00 | 0.00 | 22 | 1009.2 |
| 20260903021541 | 93 | 168 | 1.7 | 3.5 | 0.00 | 0.00 | 0.00 | 22 | 1009.1 |
| 20260903021041 | 93 | 168 | 1.7 | 3.5 | 0.00 | 0.00 | 0.00 | 21 | 1009.1 |
| 20260903020540 | 93 | 168 | 1.7 | 3.5 | 0.00 | 0.00 | 0.00 | 21 | 1009.0 |
| 20260903020049 | 93 | 168 | 1.7 | 2.6 | 0.00 | 0.00 | 0.00 | 21 | 1009.0 |
| 20260903015540 | 93 | 168 | 0.0 | 2.6 | 0.00 | 0.00 | 0.00 | 21 | 1008.9 |
| 20260903015039 | 94 | 168 | 0.0 | 2.6 | 0.00 | 0.00 | 0.00 | 21 | 1008.8 |
| 20260903014539 | 94 | 168 | 0.9 | 2.6 | 0.00 | 0.00 | 0.00 | 21 | 1008.8 |
| 20260903014045 | 94 | 168 | 1.7 | 3.5 | 0.00 | 0.00 | 0.00 | 21 | 1008.7 |
| 20260903013543 | 95 | 168 | 1.7 | 3.5 | 0.00 | 0.00 | 0.00 | 20 | 1008.6 |
| 20260903012541 | 95 | 168 | 1.7 | 3.5 | 0.00 | 0.00 | 0.00 | 19 | 1008.6 |
| 20260903012039 | 96 | 168 | 0.9 | 4.3 | 0.00 | 0.00 | 0.00 | 19 | 1008.6 |
| 20260903011539 | 96 | 168 | 1.7 | 5.2 | 0.00 | 0.00 | 0.00 | 19 | 1008.5 |
| 20260903011038 | 96 | 168 | 1.7 | 5.2 | 0.00 | 0.00 | 0.00 | 19 | 1008.5 |
| 20260903010542 | 96 | 156 | 2.6 | 7.0 | 0.00 | 0.00 | 0.00 | 19 | 1008.4 |
| 20260903010040 | 97 | 161 | 3.5 | 7.0 | 0.00 | 0.00 | 0.00 | 18 | 1008.4 |
| 20260903005538 | 97 | 176 | 2.6 | 6.1 | 0.00 | 0.00 | 0.00 | 18 | 1008.5 |
| 20260903005037 | 97 | 182 | 2.6 | 6.1 | 0.00 | 0.00 | 0.00 | 17 | 1008.5 |
| 20260903004538 | 98 | 150 | 1.7 | 5.2 | 0.00 | 0.00 | 0.00 | 17 | 1008.4 |
| 20260903004038 | 98 | 179 | 2.6 | 7.0 | 0.00 | 0.00 | 0.00 | 16 | 1008.3 |
| 20260903003539 | 98 | 166 | 2.6 | 9.6 | 0.00 | 0.00 | 0.00 | 17 | 1008.3 |
| 20260903002537 | 98 | 158 | 3.5 | 7.0 | 0.00 | 0.00 | 0.00 | 16 | 1008.4 |
| 20260903002038 | 99 | 127 | 3.5 | 7.0 | 0.00 | 0.00 | 0.00 | 16 | 1008.4 |
| 20260903001538 | 99 | 164 | 2.6 | 8.7 | 0.00 | 0.00 | 0.00 | 15 | 1008.4 |
| 20260903001040 | 99 | 171 | 3.5 | 8.7 | 0.00 | 0.00 | 0.00 | 16 | 1008.5 |
| 20260903000536 | 99 | 165 | 3.5 | 10.4 | 0.00 | 0.00 | 0.00 | 16 | 1008.5 |
| 20260903000042 | 99 | 187 | 4.3 | 10.4 | 0.00 | 0.00 | 0.00 | 15 | 1008.6 |
| 20260902235537 | 99 | 194 | 4.3 | 8.7 | 0.00 | 0.00 | 0.00 | 15 | 1008.5 |
| 20260902235037 | 100 | 148 | 2.6 | 8.7 | 0.00 | 0.00 | 0.00 | 15 | 1008.5 |
| 20260902234537 | 99 | 170 | 2.6 | 8.7 | 0.00 | 0.00 | 0.00 | 15 | 1008.4 |
| 20260902234036 | 100 | 175 | 2.6 | 5.2 | 0.00 | 0.00 | 0.00 | 15 | 1008.5 |
| 20260902233536 | 100 | 256 | 2.6 | 7.0 | 0.00 | 0.00 | 0.00 | 15 | 1008.5 |
| 20260902232535 | 100 | 224 | 1.7 | 5.2 | 0.00 | 0.00 | 0.00 | 15 | 1008.6 |
| 20260902232036 | 100 | 179 | 1.7 | 4.3 | 0.00 | 0.00 | 0.00 | 15 | 1008.7 |
| 20260902231538 | 100 | 181 | 2.6 | 5.2 | 0.00 | 0.00 | 0.00 | 15 | 1008.7 |